Newport, AR

5:03 AM CDT on May 26, 2017 (GMT -0500)
Newport

Weather History for KM19 - March, 2013

Change the Weather History Date:

Saturday, March 30, 2013

  Actual Average (KBVX) Record (KBVX)
Temperature  
Mean Temperature 50 °F -  
Max Temperature 55 °F 65 °F 83 °F (1963)
Min Temperature 44 °F 43 °F 17 °F (1964)
Degree Days  
Heating Degree Days 16    
Moisture  
Dew Point 49 °F    
Average Humidity 100    
Maximum Humidity 100    
Minimum Humidity 100    
Precipitation  
Precipitation 0.25 in - - ()
Sea Level Pressure  
Sea Level Pressure 30.10 in    
Wind  
Wind Speed 5 mph (ENE)    
Max Wind Speed 13 mph    
Max Gust Speed 17 mph    
Visibility 4 miles    
Events Fog , Rain    
Averages and records for this station are not official NWS values.
T = Trace of Precipitation, MM = Missing Value Source: NWS Daily Summary

Daily Weather History Graph

Daily Weather History Graph

Search for Another Location

Airport or City:

Trip Planner

Search our weather history database for the weather conditions in past years. The results will help you decide how hot, cold, wet, or windy it might be!

Date:

Astronomy

Mar. 30, 2013 Rise Set
Actual Time 6:53 AM CDT 7:24 PM CDT
Civil Twilight 6:28 AM CDT 7:50 PM CDT
Nautical Twilight 5:57 AM CDT 8:20 PM CDT
Astronomical Twilight 5:27 AM CDT 8:51 PM CDT
Moon 11:23 PM CDT (3/30) 8:56 AM CDT (3/30)
Length of Visible Light 13h 22m
Length of Day
12h 31m
Waning Gibbous, 86% of the Moon is Illuminated
Mar 30
Waning Gibbous
Apr 2
Last Quarter
Apr 10
New
Apr 18
First Quarter
Apr 25
Full

Hourly Weather History & Observations

Time (CDT) Temp. Windchill Dew Point Humidity Pressure Visibility Wind Dir Wind Speed Gust Speed Precip Events Conditions
12:09 AM 46.4 °F 45.2 °F 46.4 °F 100% 30.21 in 0.2 mi East 3.5 mph - N/A Fog Fog
12:31 AM 46.4 °F 45.2 °F 46.4 °F 100% 30.20 in 0.5 mi NE 3.5 mph - N/A Fog Fog
12:35 AM 46.4 °F 45.2 °F 46.4 °F 100% 30.20 in 1.0 mi NE 3.5 mph - N/A   Mostly Cloudy
12:46 AM 46.4 °F 45.2 °F 46.4 °F 100% 30.20 in 0.5 mi NE 3.5 mph - N/A Fog Fog
12:56 AM 46.9 °F - 46.9 °F 100% 30.21 in 0.5 mi Calm Calm - N/A Fog Fog
1:06 AM 46.4 °F 45.2 °F 46.4 °F 100% 30.20 in 0.2 mi NE 3.5 mph - N/A Fog Fog
1:15 AM 46.4 °F 45.2 °F 46.4 °F 100% 30.20 in 0.2 mi ENE 3.5 mph - N/A Fog Fog
1:56 AM 45.9 °F 43.6 °F 45.9 °F 100% 30.18 in 0.2 mi NE 4.6 mph - N/A Fog Fog
2:10 AM 44.6 °F 41.4 °F 44.6 °F 100% 30.17 in 0.5 mi NE 5.8 mph - N/A Fog Fog
2:24 AM 46.4 °F 45.2 °F 46.4 °F 100% 30.17 in 0.5 mi NNE 3.5 mph - N/A Fog Fog
2:48 AM 46.4 °F 44.3 °F 46.4 °F 100% 30.16 in 0.8 mi NE 4.6 mph - N/A   Overcast
2:56 AM 45.9 °F 43.6 °F 45.9 °F 100% 30.17 in 1.2 mi NE 4.6 mph - N/A   Overcast
3:10 AM 46.4 °F - 46.4 °F 100% 30.16 in 1.5 mi Calm Calm - N/A   Overcast
3:49 AM 46.4 °F 44.3 °F 46.4 °F 100% 30.15 in 2.5 mi NNE 4.6 mph - N/A   Overcast
3:56 AM 46.9 °F - 46.9 °F 100% 30.15 in 2.5 mi NE 5.8 mph - N/A   Overcast
4:37 AM 46.4 °F 43.5 °F 46.4 °F 100% 30.15 in 3.0 mi NE 5.8 mph - N/A   Overcast
4:56 AM 46.9 °F - 46.9 °F 100% 30.13 in 4.0 mi NE 8.1 mph - N/A   Overcast
5:56 AM 46.9 °F - 46.9 °F 100% 30.16 in 4.0 mi NNE 4.6 mph - N/A   Overcast
6:56 AM 46.9 °F - 46.9 °F 100% 30.14 in 2.5 mi NE 8.1 mph - 0.00 in   Overcast
7:16 AM 46.4 °F 42.9 °F 46.4 °F 100% 30.14 in 1.8 mi ENE 6.9 mph - N/A   Overcast
7:32 AM 46.4 °F 42.4 °F 46.4 °F 100% 30.14 in 1.8 mi NE 8.1 mph - N/A   Overcast
7:41 AM 46.4 °F 42.4 °F 46.4 °F 100% 30.14 in 1.8 mi ENE 8.1 mph - N/A   Overcast
7:56 AM 46.9 °F - 46.9 °F 100% 30.15 in 1.8 mi ENE 8.1 mph - N/A   Overcast
8:03 AM 46.4 °F 43.5 °F 46.4 °F 100% 30.15 in 2.0 mi ENE 5.8 mph - N/A   Overcast
8:20 AM 46.4 °F 43.5 °F 46.4 °F 100% 30.16 in 3.0 mi ENE 5.8 mph - N/A   Overcast
8:56 AM 46.9 °F - 46.9 °F 100% 30.15 in 4.0 mi ENE 8.1 mph - N/A   Overcast
9:56 AM 47.8 °F - 47.8 °F 100% 30.13 in 5.0 mi North - - N/A   Overcast
10:32 AM 48.2 °F - 48.2 °F 100% 30.12 in 6.0 mi East 5.8 mph - N/A   Overcast
10:56 AM 47.8 °F - 47.8 °F 100% 30.13 in 4.0 mi Calm Calm - 0.00 in Rain Light Rain
11:12 AM 48.2 °F - 48.2 °F 100% 30.12 in 4.0 mi NNE 3.5 mph - 0.02 in Rain Light Rain
11:33 AM 48.2 °F - 48.2 °F 100% 30.12 in 2.5 mi North - - 0.10 in Rain Rain
11:39 AM 48.2 °F - 48.2 °F 100% 30.12 in 1.8 mi North - - 0.14 in Rain Rain
11:45 AM 48.2 °F - 48.2 °F 100% 30.12 in 2.0 mi North - - 0.17 in Rain Rain
11:56 AM 47.8 °F - 47.8 °F 100% 30.12 in 3.0 mi ESE 3.5 mph - 0.18 in Rain Light Rain
12:15 PM 48.2 °F - 48.2 °F 100% 30.11 in 5.0 mi East 4.6 mph - 0.00 in Rain Light Rain
12:56 PM 48.9 °F - 48.9 °F 100% 30.09 in 3.0 mi East 3.5 mph - 0.05 in Rain Rain
1:56 PM 52.9 °F - 52.9 °F 100% 30.04 in 10.0 mi ESE 5.8 mph - 0.02 in Rain Light Rain
2:56 PM 54.9 °F - 54.9 °F 100% 30.01 in 10.0 mi SSE 12.7 mph 17.3 mph 0.00 in   Overcast
3:56 PM 54.9 °F - 54.9 °F 100% 29.99 in 10.0 mi North - - N/A   Overcast
4:56 PM 55.9 °F - 55.9 °F 100% 29.97 in 10.0 mi North - - N/A   Overcast
5:14 PM 55.4 °F - 55.4 °F 100% 29.96 in 10.0 mi SSE 8.1 mph - N/A   Overcast
5:56 PM 55.9 °F - 55.9 °F 100% 29.97 in 10.0 mi South 5.8 mph - N/A   Overcast
6:56 PM 55.9 °F - 55.9 °F 100% 29.96 in 10.0 mi SW 6.9 mph - N/A   Overcast
7:56 PM 55.9 °F - 55.9 °F 100% 29.97 in 10.0 mi SW 5.8 mph - N/A   Overcast
8:56 PM 54.9 °F - 54.9 °F 100% 29.97 in 10.0 mi SW 3.5 mph - N/A   Overcast
9:48 PM 55.4 °F - 55.4 °F 100% 29.96 in 9.0 mi South 3.5 mph - N/A   Overcast
9:56 PM 54.9 °F - 54.9 °F 100% 29.97 in 7.0 mi South 4.6 mph - N/A   Overcast
10:56 PM 54.0 °F - 54.0 °F 100% 29.97 in 6.0 mi South 5.8 mph - N/A   Mostly Cloudy
11:09 PM 51.8 °F - 51.8 °F 100% 29.98 in 4.0 mi SSW 6.9 mph - N/A   Scattered Clouds
11:40 PM 53.6 °F - 53.6 °F 100% 29.99 in 4.0 mi WNW 6.9 mph - N/A   Overcast
11:56 PM 52.9 °F - 52.9 °F 100% 29.98 in 5.0 mi SW 3.5 mph - N/A   Overcast